Location: Unspecified
(0.0000°N, 0.0000°E)
Time: 11:36:52
(UTC+02:00)

Atlas Centaur 2 - Visible Passes

Search period start: 26 April 2018 00:00
Search period end: 06 May 2018 00:00
Orbit: 459 x 1312 km, 30.4° (Epoch: 25 April)

Date Brightness Start Highest point End Pass type
(mag) Time Alt. Az. Time Alt. Az. Time Alt. Az.
26 Apr 4.1 05:18:42 34° N 05:18:42 34° N 05:24:21 10° NE visible
26 Apr 4.9 07:03:14 10° NW 07:07:18 14° NNW 07:11:25 10° N visible
27 Apr 4.3 05:15:22 28° N 05:15:22 28° N 05:20:20 10° NNE visible
27 Apr 5.0 07:01:40 10° NW 07:04:04 11° NNW 07:06:29 10° N visible
28 Apr 4.6 05:11:57 22° N 05:11:57 22° N 05:16:12 10° NNE visible
29 Apr 4.8 05:08:30 18° N 05:08:30 18° N 05:11:56 10° NNE visible
30 Apr 5.0 05:05:02 14° N 05:05:02 14° N 05:07:28 10° NNE visible
01 May 5.2 05:01:30 11° N 05:01:30 11° N 05:02:32 10° N visible
